User: anonymous   Login
Location: Unspecified
(0.0000°N, 0.0000°E)
Time: 23:00:30
(UTC+00:00)
Language:

A-11 Canister half - Orbit

View from above orbital plane
View from above orbital plane
View from above satellite
View from above satellite

Ground track
Ground track

The orbit data is extracted from the following two-line orbital elements,

1 00051U 60009C   21300.56121567 -.00000114  00000-0 -28633-3 0  9993
2 00051  47.2126 249.4925 0105802 201.9382 157.6857 12.18272128724697
Epoch (UTC): 27 October 2021 13:28:09
Eccentricity: 0.0105802
inclination: 47.2126°
perigee height: 1515 km
apogee height: 1684 km
right ascension of ascending node: 249.4925°
argument of perigee: 201.9382°
revolutions per day: 12.18272128
mean anomaly at epoch: 157.6857°
orbit number at epoch: 72469

The dashed part of the orbit path shows where the satellite is in the earth's shadow,  

DLR